OPTUS D1

Last updated on Tue Sep 16 2025 00:02:46 GMT+0000 (Coordinated Universal Time)

1 29495U 06043B 25258.54332242 -.00000200 00000+0 00000+0 0 9990 2 29495 2.3215 83.0893 0003594 99.5967 159.6537 1.00270545 69365
UTC large
Height (km)
Speed (km/s)
/
Latitude / Longitude
Inclination (degrees)
Orbital Period (minutes)
Azimuth
Elevation
Range (km)
Doppler Factor

Next 0 passes for location: London (51.5072 / 0.1276)

Sorry there are no passes over London.